Location: Hac?musa Deresi
(39.1694°N, 32.2508°E)
Time: 11:51:47
(UTC+00:00)

Okean-O - Pass Details

Date: 22 April 2026
Orbit: 627 x 629 km, 97.9° (Epoch: 20 May)

Event Time Altitude Azimuth Distance (km) Brightness Sun altitude
Exits shadow 19:07:16 58° 258° (WSW) 737 3.0 -26.1°
Maximum altitude 19:07:17 58° 259° (W) 737 3.0 -26.1°
Drops below altitude 10° 19:11:36 10° 339° (NNW) 2,014 6.0 -26.7°
Sets 19:13:51 0° 344° (NNW) 2,925 7.0 -27.0°
